Regional Weather Roundup
Issued by NWS New Orleans/Baton Rouge, LA

Home | Current Version | Previous Version | Text Only | Print | Product List | Glossary On
Versions: 1 2 3 4 5 6 7 8 9 10 11 12 13 14 15 16 17 18 19 20 21 22 23 24 25 26 27 28 29 30 31 32 33 34 35 36 37 38 39 40 41 42 43 44 45 46 47 48 49 50
000
ASUS44 KLIX 310010
RWRLIX
NEW ORLEANS REGIONAL WEATHER ROUNDUP
NATIONAL WEATHER SERVICE NEW ORLEANS LA
700 PM CDT SAT AUG 30 2014

NOTE: "FAIR" INDICATES FEW OR NO CLOUDS BELOW 12,000 FEET WITH NO
      SIGNIFICANT WEATHER AND/OR OBSTRUCTIONS TO VISIBILITY.
      SKY/WX - SKY CONDITION AND SIGNIFICANT WEATHER.
      TMP - AIR TEMPERATURE.     DP    - DEWPOINT TEMPERATURE.
      RH  - RELATIVE HUMIDITY.   PRES  - PRESSURE.
      HI  - HEAT INDEX.          WCI   - WIND CHILL INDEX.

*  THESE STATIONS ARE NOT NWS OR FAA STATIONS AND ARE NOT UNDER
   NWS QUALITY CONTROL.

LAZ038-040-048-061>063-065>067-069-310100-
SOUTHEAST LOUISIANA

CITY           SKY/WX    TMP DP  RH WIND       PRES   REMARKS
N.O. AUDUBON     N/A     79  76  89 MISG        N/A
6HR MIN TEMP:  74; 6HR MAX TEMP:  82; 6HR PCP:  1.40;

N.O. INTL ARPT CLOUDY    80  74  81 CALM      30.04R
6HR MIN TEMP:  75; 6HR MAX TEMP:  81; 6HR PCP:  0.31;

N.O. LAKEFRONT CLOUDY    80  73  79 S3        30.04R
6HR MIN TEMP:  74; 6HR MAX TEMP:  80; 6HR PCP:  0.87;

N.O. DOWNTOWN*   N/A     93  70  46 CALM      30.04R HX  99
6HR MIN TEMP:  73; 6HR MAX TEMP:  93; 6HR PCP:  2.03;

SLIDELL        CLOUDY    76  73  91 CALM      30.03S
6HR MIN TEMP:  74; 6HR MAX TEMP:  77; 6HR PCP:  1.38;

BATON ROUGE    LGT RAIN  75  73  93 S8        30.02S
6HR MIN TEMP:  74; 6HR MAX TEMP:  76; 6HR PCP:  1.03;

BOOTHVILLE     CLOUDY    86  79  79 S8        30.04R HX  99
6HR MIN TEMP:  86; 6HR MAX TEMP:  90;

BELLE CHASSE   CLOUDY    80  75  84 CALM      30.02R
6HR MIN TEMP:  75; 6HR MAX TEMP:  82; 6HR PCP:  1.14;

BOGALUSA*        N/A     77  72  83 CALM      30.05S
6HR MIN TEMP:  76; 6HR MAX TEMP:  78; 6HR PCP:  0.54;

GALLIANO*      NOT AVBL
NEW ROADS*     LGT RAIN  74  73  97 S8        30.02S
6HR MIN TEMP:  74; 6HR MAX TEMP:  76; 6HR PCP:  0.11;

GONZALES*      RAIN      75  75 100 SW3       30.05R
6HR MIN TEMP:  74; 6HR MAX TEMP:  77; 6HR PCP:  0.68;

HAMMOND*       CLOUDY    77  73  88 S3        30.08R
HOUMA*         PTCLDY    75  70  83 W14       30.04R FOG
PORT FOURCHON* PTCLDY    86  79  79 S7        30.04R HX  99

$$

MSZ070-080>082-310100-
SOUTHERN MISSISSIPPI

CITY           SKY/WX    TMP DP  RH WIND       PRES   REMARKS
MCCOMB         CLOUDY    74  73  97 S8        30.03R
6HR MIN TEMP:  73; 6HR MAX TEMP:  75; 6HR PCP:  0.31;

GULFPORT       CLOUDY    77  74  90 N3        30.04R
6HR MIN TEMP:  75; 6HR MAX TEMP:  87; 6HR PCP:  0.20;

BILOXI         CLOUDY    77  74  91 NE3       30.04R
6HR MIN TEMP:  76; 6HR MAX TEMP:  88; 6HR PCP:  0.12;

PASCAGOULA     CLOUDY    76  74  93 NE5       30.06R
6HR MIN TEMP:  76; 6HR MAX TEMP:  89; 6HR PCP:  0.06;

STENNIS ARPT*  PTCLDY   N/A N/A N/A CALM      30.04S

$$

COASTAL OBSERVATIONS
LAKE AND NEARSHORE STATIONS

STATION/POSITION TIME  TEMP    WIND        PRES    WAVE
                       AIR SEA DIR/SP/G            HT/PER
                 (UTC) (F)     (DEG/KT/KT) (MB)    (FT/S)
PASCAGOULA       0000   80     350/  3/  5 1017.1
WAVELAND YACHT   0000   78      40/  3/  4 1016.5
GRAND ISLE       0000   85 84  200/  5/  8 1017.4
SOUTHWEST PASS   0000   86 90  170/ 11/ 14 1017.0
NEW CANAL        0000   80 80  190/  1/  2 1017.4
SHELL BEACH      0000   79 81   70/  5/  6 1016.9

OFFSHORE STATIONS

STATION/POSITION TIME  TEMP    WIND        PRES    WAVE
                       AIR SEA DIR/SP/G            HT/PER
                 (UTC) (F)     (DEG/KT/KT) (MB)    (FT/S)
64 S DAUPHIN ISL 0000   85 85  150/ 12/ 14 1017.3

$$



USA.gov is the U.S. government's official web portal to all federal, state and local government web resources and services.